Regional Weather Roundup
Issued by NWS

Home | Current Version | Previous Version | Graphics & Text | Print | Product List | Glossary On
Versions: 1 2 3 4 5 6 7 8 9 10 11 12 13 14 15 16 17 18 19 20 21 22 23 24 25 26 27 28 29 30 31 32 33 34 35 36 37 38 39 40 41 42 43 44 45 46 47 48 49 50
000
ASUS43 KLOT 261700
RWRIL

ILLINOIS REGIONAL WEATHER ROUNDUP
NATIONAL WEATHER SERVICE CHICAGO/ROMEOVILLE IL
1200 PM CDT SAT JUL 26 2014

NOTE: "FAIR" INDICATES FEW OR NO CLOUDS BELOW 12,000 FEET WITH NO
SIGNIFICANT WEATHER AND/OR OBSTRUCTIONS TO VISIBILITY.

* THESE STATIONS ARE NOT UNDER NWS QUALITY CONTROL. THEY ALSO MAY NOT
  REPORT WEATHER SUCH AS PRECIPITATION OR FOG.

ILZ001-002-007-009-015-016-024-261800-
NORTHWEST ILLINOIS

CITY           SKY/WX    TMP DP  RH WIND       PRES   REMARKS
MOLINE         CLOUDY    77  67  71 NE7       29.85R
STERLING*      MOSUNNY   81  70  69 E6        29.84R HX  84
$$

ILZ003-004-008-010-011-017-018-261800-
NORTH CENTRAL ILLINOIS

CITY           SKY/WX    TMP DP  RH WIND       PRES   REMARKS
ROCKFORD       PTSUNNY   80  66  62 N9        29.85F HX  82
FREEPORT*      MOSUNNY   76  69  79 N7        29.88R
$$

ILZ005-006-012>014-019>023-261800-
NORTHEAST ILLINOIS

CITY           SKY/WX    TMP DP  RH WIND       PRES   REMARKS
CHICAGO-OHARE  CLOUDY    78  64  61 W6        29.85R HX  80
CHICAGO-MIDWAY CLOUDY    78  67  68 W9        29.85S HX  80
AURORA         CLOUDY    77  66  68 W3        29.86S
LANSING*       CLOUDY    74  65  75 SW8       29.87S
WAUKEGAN       CLOUDY    77  64  64 SE7       29.83F
DUPAGE AIRPORT CLOUDY    78  67  68 VRB5      29.85S HX  80
WHEELING       CLOUDY    81  66  60 VRB5      29.85S HX  83
NORTHERLY ISL    N/A     76  64  66 W3          N/A
$$

LMZ740>746-261800-
SOUTHERN LAKE MICHIGAN

STATION/POSITION SKY/WX   TEMP    WIND        PRES    VSBY  WAVE
                          AIR SEA DIR/SP/G                  HT/PER
                          (F)     (DEG/KT/KT) (MB)    (MI)  (FT/S)
SOUTHERN BUOY              64 62  140/  6/  6 1010.8S         1
WAUKEGAN HARBOR            69     110/  4/  4   N/A
HARRISON CRIB              71     140/  9/ 10   N/A
BURNHAM HARBOR             76     270/  6/  7   N/A
CALUMET HARBOR             74     210/  7/ 10 1009.9R
MICHIGAN CITY              72     200/  6/  7   N/A
MICHIGAN CITY 6N           71 69  230/  4/  6   N/A           1
ST. JOSEPH                 70 66  250/  2/  2   N/A           1
$$

ILZ025>027-034>036-040-047-049-050-058-095>099-261800-
WEST-CENTRAL ILLINOIS

CITY           SKY/WX    TMP DP  RH WIND       PRES   REMARKS
QUINCY         MOSUNNY   86  75  69 SW8       29.81F HX  95
GALESBURG*     CLOUDY    74  71  89 N7        29.84F
MACOMB*        CLOUDY    78  75  88 W6        29.85R HX  81
$$

ILZ028>032-037-038-041>044-048-051>054-059>061-261800-
CENTRAL ILLINOIS

CITY           SKY/WX    TMP DP  RH WIND       PRES   REMARKS
PONTIAC        CLOUDY    77  72  83 CALM      29.86R
DECATUR        MOSUNNY   84  74  71 SW13      29.86F HX  91
PEORIA         CLOUDY    79  71  76 W6        29.84F HX  82
SPRINGFIELD    PTSUNNY   86  76  71 W9        29.84F HX  96
TAYLORVILLE    NOT AVBL
$$

ILZ033-039-045-046-055>057-062-063-261800-
EAST-CENTRAL ILLINOIS

CITY           SKY/WX    TMP DP  RH WIND       PRES   REMARKS
CHAMPAIGN      CLOUDY    82  74  76 SW9       29.87F HX  88
MATTOON        CLOUDY    82  73  74 SW9       29.88S HX  87
$$

ILZ079-100>102-261800-
SOUTHWEST ILLINOIS

CITY           SKY/WX    TMP DP  RH WIND       PRES   REMARKS
ALTON          SUNNY     86  77  74 SW9       29.87F HX  97
BELLEVILLE     SUNNY     90  76  62 VRB3      29.87F HX 101
CAHOKIA*       SUNNY     90  74  59 SW8G16    29.86F HX  99
$$

ILZ064>066-069>071-074>076-080>082-084>086-088>090-092>094-261800-
SOUTH-CENTRAL ILLINOIS

CITY           SKY/WX    TMP DP  RH WIND       PRES   REMARKS
CARBONDALE     SUNNY     87  72  60 SW13      29.92F HX  93
MARION         SUNNY     84  73  70 S12       29.95  HX  91
MT. VERNON     MOSUNNY   86  73  66 SW13G18   29.91F HX  93
$$

ILZ067-068-072-073-078-083-087-091-261800-
SOUTHEAST ILLINOIS

CITY           SKY/WX    TMP DP  RH WIND       PRES   REMARKS
LAWRENCEVILLE  MOSUNNY   83  73  72 S15       29.90F HX  89
HARRISBURG*    MOSUNNY   84  74  72 SW9       29.94F HX  91
$$

ABBREVIATIONS USED IN REMARKS
   TC - TEMPERATURE IN CELSIUS
  WCI - WIND CHILL INDEX
   HX - HEAT INDEX
  VSB - VISIBILITY
$$




USA.gov is the U.S. government's official web portal to all federal, state and local government web resources and services.